Regional Weather Roundup
Issued by NWS

Home | Current Version | Previous Version | Text Only | Print | Product List | Glossary On
Versions: 1 2 3 4 5 6 7 8 9 10 11 12 13 14 15 16 17 18 19 20 21 22 23 24 25 26 27 28 29 30 31 32 33 34 35 36 37 38 39 40 41 42 43 44 45 46 47 48 49 50
661
ASUS42 KKEY 251310
RWRKEY

FLORIDA REGIONAL WEATHER ROUNDUP FOR THE FLORIDA KEYS
NATIONAL WEATHER SERVICE KEY WEST FLORIDA
900 AM EDT SUN JUN 25 2017

...SOUTH FLORIDA AND THE KEYS...

CITY           SKY/WX    TMP DP  RH WIND       PRES   REMARKS
FORT MYERS     SUNNY     82  78  88 SE8       30.11S HX  91
SW REGIONAL AP SUNNY     82  75  79 SE6       30.11S
NAPLES         SUNNY     84  76  76 E8        30.11R HX  93
MIAMI          MOSUNNY   86  73  65 E10       30.11S HX  93
WEST KENDALL   MOSUNNY   86  73  65 SE9       30.11S HX  93
HOMESTEAD      MOSUNNY   86  77  75 E8        30.10S HX  97
MARATHON       MOSUNNY   85  76  74 SE9       30.09R HX  94
BOCA CHICA NAS MOSUNNY   85  77  77 SE13      30.09R HX  95
KEY WEST INTL  MOSUNNY   85  74  69 SE12      30.09R HX  92

...INTERNATIONAL WEATHER...

CITY           SKY/WX    TMP DP  RH WIND       PRES   REMARKS
NASSAU BAHAMAS MOSUNNY   90  73  58 E9        30.13R HX  98
CANCUN MEXICO  PTSUNNY   84  79  84 E7        30.02R HX  96
COZUMEL MEXICO PTSUNNY   84  79  84 E7        30.00R HX  96

ADJACENT COASTAL WATERS...

STATION/POSITION TIME  SKY/WX   TEMP    WIND        PRES    WAVE
                                AIR SEA DIR/SP/G            HT/PER
                 (UTC)          (F)     (DEG/KT/KT) (MB)    (FT/S)
PULASKI SHOAL LI 1300            83     120/ 11/ 12 1018.9R
SAND KEY         1250            83     150/ 12/ 14 1019.4R
LONG KEY         NOT AVBL
MOLASSES REEF    1300            83 83  120/ 11/ 11 1019.7R
FOWEY ROCKS      1300            82 82  120/ 12/ 12 1020.2S
Buoy 42097       1230               81                N/A     2/ 4

$$




USA.gov is the U.S. government's official web portal to all federal, state and local government web resources and services.